Regional Weather Roundup
Issued by NWS Raleigh/Durham, NC

Home | Current Version | Previous Version | Text Only | Print | Product List | Glossary On
Versions: 1 2 3 4 5 6 7 8 9 10 11 12 13 14 15 16 17 18 19 20 21 22 23 24 25 26 27 28 29 30 31 32 33 34 35 36 37 38 39 40 41 42 43 44 45 46 47 48 49 50
000
ASUS42 KRAH 302110
RWRRAH
NORTH CAROLINA WEATHER ROUNDUP
NATIONAL WEATHER SERVICE RALEIGH NC
500 PM EDT SAT APR 30 2016

NOTE: "FAIR" INDICATES FEW OR NO CLOUDS BELOW 12,000 FEET WITH NO
SIGNIFICANT WEATHER AND/OR OBSTRUCTIONS TO VISIBILITY.

NCZ001-053-055-056-065-067-302200-
WESTERN NORTH CAROLINA

CITY           SKY/WX    TMP DP  RH WIND       PRES   REMARKS
ASHEVILLE      CLOUDY    73  58  59 SE13G20   30.02S
JEFFERSON      FOG       54  54  98 SE3       30.11S VSB<1/4
MORGANTON      CLOUDY    65  60  82 NE5       30.11F
HICKORY        CLOUDY    62  60  93 NE9       30.06F
RUTHERFORDTON  CLOUDY    72  61  68 E5        30.03F
MOUNT AIRY     CLOUDY    60  58  92 E7        30.12F FOG
BOONE          CLOUDY    58  57  96 E3        30.12S
$$

NCZ021-022-025-041-071-084-088-302200-
CENTRAL NORTH CAROLINA

CITY           SKY/WX    TMP DP  RH WIND       PRES   REMARKS
CHARLOTTE      CLOUDY    75  63  66 NE12      30.02F
GREENSBORO     CLOUDY    62  59  90 E8        30.09S
WINSTON-SALEM  CLOUDY    61  58  90 E8        30.10F
RALEIGH-DURHAM CLOUDY    63  56  78 E10       30.12F
FORT BRAGG     CLOUDY    70  60  71 E6        30.08S
FAYETTEVILLE   CLOUDY    70  61  73 E7        30.08F
BURLINGTON     CLOUDY    62  57  83 E6        30.10F
LAURINBURG     CLOUDY    74  61  63 E13       30.06F
$$

NCZ011-015-027-028-043-044-047-080-103-302200-
NORTHEASTERN NORTH CAROLINA

CITY           SKY/WX    TMP DP  RH WIND       PRES   REMARKS
ROCKY MT-WILSO CLOUDY    61  56  83 NE8       30.15F
GREENVILLE     CLOUDY    63  55  77 E9        30.16S
WASHINGTON     CLOUDY    63  55  75 NE6       30.15S
ELIZABETH CITY PTSUNNY   61  51  70 NE10      30.17S
MANTEO         NOT AVBL
CAPE HATTERAS  CLOUDY    60  55  83 NE12G20   30.15S
$$

NCZ078-087-090-091-093-098-101-302200-
SOUTHEASTERN NORTH CAROLINA

CITY           SKY/WX    TMP DP  RH WIND       PRES   REMARKS
LUMBERTON      CLOUDY    74  63  68 E8        30.05F
GOLDSBORO      CLOUDY    66  61  82 E13       30.11S
KINSTON        CLOUDY    64  57  77 NE10      30.14S
KENANSVILLE    CLOUDY    68  58  68 E3        30.12R
NEW BERN       CLOUDY    65  56  72 NE10      30.14S
CHERRY POINT   CLOUDY    66  57  72 NE16      30.13S
BEAUFORT       MOSUNNY   68  57  68 NE12G21   30.12R
JACKSONVILLE   CLOUDY    68  57  68 E9        30.11R
WILMINGTON     CLOUDY    66  59  78 E9        30.11R
$$




USA.gov is the U.S. government's official web portal to all federal, state and local government web resources and services.